Regional Weather Roundup
Issued by NWS

Home | Current Version | Previous Version | Graphics & Text | Print | Product List | Glossary On
Versions: 1 2 3 4 5 6 7 8 9 10 11 12 13 14 15 16 17 18 19 20 21 22 23 24 25 26 27 28 29 30 31 32 33 34 35 36 37 38 39 40 41 42 43 44 45 46 47 48 49 50
000
ASUS43 KBIS 221102
RWRND

NORTH DAKOTA REGIONAL WEATHER ROUNDUP
NATIONAL WEATHER SERVICE BISMARCK ND
500 AM CST WED NOV 22 2017

NOTE: "FAIR" INDICATES FEW OR NO CLOUDS BELOW 12,000 FEET WITH NO
SIGNIFICANT WEATHER AND/OR OBSTRUCTIONS TO VISIBILITY.


NDZ001>003-009>011-017-221200-
NORTHWEST NORTH DAKOTA

CITY           SKY/WX    TMP DP  RH WIND       PRES   REMARKS
WILLISTON      CLOUDY    22  11  62 S7        29.92F WCI  13
MINOT          CLOUDY    16   9  74 SE9       29.99F WCI   4
MINOT AFB      CLOUDY    14   9  79 SE7       29.98F WCI   4
$$

NDZ018>021-031>035-040>046-221200-
SOUTHWEST NORTH DAKOTA

CITY           SKY/WX    TMP DP  RH WIND       PRES   REMARKS
BISMARCK       CLEAR     15  11  83 SE7       30.10F WCI   5
DICKINSON      CLOUDY    27  17  66 S16       29.93F WCI  15
GARRISON         N/A     19  13  77 S12       30.00F WCI   7
HETTINGER ARPT CLOUDY    26  16  65 S7        30.02F WCI  18
$$

NDZ004>008-012>016-024-026-027-054-221200-
NORTHEAST NORTH DAKOTA

CITY           SKY/WX    TMP DP  RH WIND       PRES   REMARKS
GRAND FORKS    CLOUDY     8   5  87 S6        30.21F WCI  -2
DEVILS LAKE    CLOUDY    12   8  84 S10       30.13F WCI  -1
$$

NDZ022-023-025-028>030-036>039-047>053-221200-
SOUTHEAST NORTH DAKOTA

CITY           SKY/WX    TMP DP  RH WIND       PRES   REMARKS
FARGO          CLOUDY    10   5  80 S7        30.25F WCI  -1
JAMESTOWN      CLOUDY     7   4  87 S7        30.16F WCI  -5
$$





USA.gov is the U.S. government's official web portal to all federal, state and local government web resources and services.